Angleton, TX

1:26 AM CDT on July 30, 2016 (GMT -0500)
Brazoria County

Weather History for KLBX - January, 2014

Change the Weather History Date:

Friday, January 3, 2014

  Actual Average Record
Temperature  
Mean Temperature 39 °F -  
Max Temperature 52 °F 61 °F 80 °F (2009)
Min Temperature 26 °F 44 °F 24 °F (2002)
Degree Days  
Heating Degree Days 26    
Moisture  
Dew Point 30 °F    
Average Humidity 72    
Maximum Humidity 96    
Minimum Humidity 44    
Precipitation  
Precipitation 0.00 in - - ()
Sea Level Pressure  
Sea Level Pressure 30.37 in    
Wind  
Wind Speed 4 mph (ENE)    
Max Wind Speed 9 mph    
Max Gust Speed -    
Visibility 10 miles    
Events      
Averages and records for this station are not official NWS values.
T = Trace of Precipitation, MM = Missing Value Source: NWS Daily Summary

Daily Weather History Graph

Daily Weather History Graph

Search for Another Location

Airport or City:

Trip Planner

Search our weather history database for the weather conditions in past years. The results will help you decide how hot, cold, wet, or windy it might be!

Date:

Astronomy

Jan. 03, 2014 Rise Set
Actual Time 7:16 AM CST 5:36 PM CST
Civil Twilight 6:50 AM CST 6:02 PM CST
Nautical Twilight 6:20 AM CST 6:32 PM CST
Astronomical Twilight 5:51 AM CST 7:01 PM CST
Moon 8:56 AM CST (1/3) 8:31 PM CST (1/3)
Length of Visible Light 11h 12m
Length of Day
10h 20m
Waxing Crescent, 8% of the Moon is Illuminated
Jan 3
Waxing Crescent
Jan 7
First Quarter
Jan 15
Full
Jan 23
Last Quarter
Jan 30
New

Hourly Weather History & Observations

Time (CST) Temp. Windchill Dew Point Humidity Pressure Visibility Wind Dir Wind Speed Gust Speed Precip Events Conditions
12:53 AM 33.1 °F - 26.1 °F 75% 30.44 in 10.0 mi Calm Calm - N/A   Clear
1:53 AM 34.0 °F 29.8 °F 25.0 °F 70% 30.44 in 10.0 mi North 4.6 mph - N/A   Clear
2:53 AM 30.0 °F 25.2 °F 24.1 °F 79% 30.44 in 10.0 mi NNE 4.6 mph - N/A   Clear
3:53 AM 30.0 °F 25.2 °F 24.1 °F 79% 30.43 in 10.0 mi NNE 4.6 mph - N/A   Clear
4:53 AM 28.9 °F 23.9 °F 24.1 °F 82% 30.42 in 10.0 mi NNE 4.6 mph - N/A   Clear
5:53 AM 28.9 °F 23.9 °F 24.1 °F 82% 30.43 in 10.0 mi North 4.6 mph - N/A   Clear
6:53 AM 26.1 °F 21.9 °F 24.1 °F 92% 30.43 in 10.0 mi North 3.5 mph - N/A   Clear
7:53 AM 28.9 °F 23.9 °F 25.0 °F 85% 30.45 in 10.0 mi North 4.6 mph - N/A   Clear
8:53 AM 39.0 °F 33.4 °F 28.9 °F 67% 30.46 in 10.0 mi NE 8.1 mph - N/A   Clear
9:53 AM 44.1 °F 39.0 °F 28.0 °F 53% 30.47 in 10.0 mi ENE 9.2 mph - N/A   Clear
10:53 AM 48.0 °F - 28.9 °F 48% 30.46 in 10.0 mi ENE 9.2 mph - N/A   Clear
11:53 AM 50.0 °F - 28.9 °F 44% 30.43 in 10.0 mi East 8.1 mph - N/A   Clear
12:53 PM 51.1 °F - 30.9 °F 46% 30.38 in 10.0 mi Variable 4.6 mph - N/A   Clear
1:53 PM 52.0 °F - 32.0 °F 47% 30.35 in 10.0 mi ESE 8.1 mph - N/A   Clear
2:53 PM 52.0 °F - 33.1 °F 49% 30.32 in 10.0 mi ESE 6.9 mph - N/A   Clear
3:53 PM 50.0 °F - 35.1 °F 57% 30.31 in 10.0 mi ESE 8.1 mph - N/A   Clear
4:53 PM 48.0 °F - 35.1 °F 61% 30.31 in 10.0 mi East 6.9 mph - N/A   Clear
5:53 PM 45.0 °F - 36.0 °F 71% 30.29 in 10.0 mi Calm Calm - N/A   Clear
6:53 PM 39.0 °F - 35.1 °F 86% 30.29 in 10.0 mi Calm Calm - N/A   Clear
7:53 PM 36.0 °F 33.3 °F 34.0 °F 93% 30.28 in 10.0 mi East 3.5 mph - N/A   Clear
8:53 PM 39.0 °F 35.7 °F 36.0 °F 89% 30.27 in 10.0 mi ESE 4.6 mph - N/A   Clear
9:53 PM 37.9 °F 35.5 °F 35.1 °F 89% 30.25 in 10.0 mi ESE 3.5 mph - N/A   Clear
10:53 PM 39.9 °F - 37.0 °F 89% 30.24 in 10.0 mi Calm Calm - N/A   Clear
11:53 PM 35.1 °F - 34.0 °F 96% 30.21 in 10.0 mi Calm Calm - N/A   Clear